Find Starlink 30523

NORAD ID: 57997 Int'l Des: 2023-153 Owner: SPXS Country: US Constellation: starlink operational
LEOCIRCULAR

当前视图

正在加载3D地球...

About Starlink 30523

Starlink 30523 (NORAD 57997) is a starlink constellation satellite (v2 mini) launched Oct 5, 2023 by SPXS of US. It operates in LEO, CIRCULAR orbit with a mass of 730.00 kg.

关于 Starlink 30523

正在加载描述...

即将过境

Passes for default location (London). Set your location on the main map for personalized predictions.

高度历史

Loading altitude history...

两行轨道根数

1 57997U 23153G 26167.86425830 -.00000316 00000-0 -19457-5 0 9992
2 57997 43.0008 226.9878 0001211 282.6825 77.3891 15.27581154150060
Epoch: Jun 16, 2026 • Age: 30 hours

当前状态

高度 493.9 km
速度 7.62 km/s
星下点 -39.18°S, 140.61°W
发射日期 Oct 5, 2023
运行时间 2.6 years
类型 internet

技术详情

分类 Payload
质量 730.00 kg
干质量 700.00 kg
总质量 730.00 kg
长度 0.30 m
直径 4.10 m
跨度 29.00 m
形状 Box + pan
制造商 SPXS
平台类型 Starlink V2M
阶段状态 In Orbit
所有者/国家 SPXS/US

Most Searched